timestamp,surface_pressure_avg,surface_temp_avg,battery_voltage,lat,long
2023-06-23 00:09:00+00:00,277.2597,7.5,12.97,47.84626,-54.09684
2023-06-23 00:19:00+00:00,283.053,7.5,12.81,47.84626,-54.09684
2023-06-23 00:29:00+00:00,290.993,7.5,12.81,47.84626,-54.09684
2023-06-23 00:39:00+00:00,294.038,7.5,12.81,47.84626,-54.09684
2023-06-23 00:49:00+00:00,302.2946,7.42,12.81,47.84626,-54.09684
2023-06-23 00:59:00+00:00,309.3864,7.4,12.81,47.84626,-54.09684
2023-06-23 01:09:00+00:00,313.5048,7.49,12.81,47.84626,-54.09684
2023-06-23 01:19:00+00:00,319.7581,7.5,12.73,47.84626,-54.09684
2023-06-23 01:29:00+00:00,330.3896,7.5,12.73,47.84626,-54.09684
2023-06-23 01:39:00+00:00,333.2197,7.5,12.73,47.84626,-54.09684
2023-06-23 01:49:00+00:00,329.2546,7.49,12.73,47.84626,-54.09684
2023-06-23 01:59:00+00:00,335.3014,7.47,12.73,47.84626,-54.09684
2023-06-23 02:09:00+00:00,342.6329,7.4,12.73,47.84626,-54.09684
2023-06-23 02:19:00+00:00,338.9846,7.5,12.73,47.84626,-54.09684
2023-06-23 02:29:00+00:00,336.1230000000001,7.5,12.73,47.84626,-54.09684
2023-06-23 02:39:00+00:00,343.2563,7.4,12.73,47.84626,-54.09684
2023-06-23 02:49:00+00:00,346.5013,7.4,12.73,47.84626,-54.09684
2023-06-23 02:59:00+00:00,341.0764,7.47,12.73,47.84626,-54.09684
2023-06-23 03:09:00+00:00,342.2413,7.4,12.73,47.84626,-54.09684
2023-06-23 03:19:00+00:00,345.9448,7.4,12.73,47.84626,-54.09684
2023-06-23 03:29:00+00:00,340.9762,7.38,12.73,47.84626,-54.09684
2023-06-23 03:39:00+00:00,335.843,7.4,12.73,47.84626,-54.09684
2023-06-23 03:49:00+00:00,338.2946,7.4,12.73,47.84626,-54.09684
2023-06-23 03:59:00+00:00,336.3879,7.4,12.73,47.84626,-54.09684
2023-06-23 04:09:00+00:00,332.0913,7.4,12.73,47.84626,-54.09684
2023-06-23 04:19:00+00:00,329.8964,7.4,12.65,47.84626,-54.09684
2023-06-23 04:29:00+00:00,327.5596,7.4,12.65,47.84626,-54.09684
2023-06-23 04:39:00+00:00,317.488,7.4,12.65,47.84626,-54.09684
2023-06-23 04:49:00+00:00,314.0613,7.4,12.65,47.84626,-54.09684
2023-06-23 04:59:00+00:00,313.64799999999997,7.43,12.65,47.84626,-54.09684
2023-06-23 05:09:00+00:00,304.8147,7.5,12.65,47.84626,-54.09684
2023-06-23 05:19:00+00:00,299.2097,7.5,12.65,47.84626,-54.09684
2023-06-23 05:29:00+00:00,294.5096,7.57,12.65,47.84626,-54.09684
2023-06-23 05:39:00+00:00,291.7947,7.6,12.65,47.84626,-54.09684
2023-06-23 05:49:00+00:00,282.7147,7.6,12.65,47.84626,-54.09684
2023-06-23 05:59:00+00:00,279.6998,7.64,12.65,47.84626,-54.09684
2023-06-23 06:09:00+00:00,273.1597,7.67,12.65,47.84626,-54.09684
2023-06-23 06:19:00+00:00,268.3964,7.69,12.65,47.84626,-54.09684
2023-06-23 06:29:00+00:00,261.7365,7.7,12.65,47.84626,-54.09684
2023-06-23 06:39:00+00:00,256.1198,7.72,12.65,47.84626,-54.09684
2023-06-23 06:49:00+00:00,247.6881,7.79,12.65,47.84626,-54.09684
2023-06-23 06:59:00+00:00,243.6431,7.8,12.65,47.84626,-54.09684
2023-06-23 07:09:00+00:00,235.9998,7.79,12.65,47.84626,-54.09684
2023-06-23 07:19:00+00:00,228.2464,7.77,12.65,47.84626,-54.09684
2023-06-23 07:29:00+00:00,220.3148,7.75,12.65,47.84626,-54.09684
2023-06-23 07:39:00+00:00,215.1397,7.71,12.65,47.84626,-54.09684
2023-06-23 07:49:00+00:00,212.1248,7.7,12.65,47.84626,-54.09684
2023-06-23 07:59:00+00:00,205.8281,7.7,12.65,47.84626,-54.09684
2023-06-23 08:09:00+00:00,203.3548,7.79,12.65,47.84626,-54.09684
2023-06-23 08:19:00+00:00,205.3748,7.8,12.57,47.84626,-54.09684
2023-06-23 08:29:00+00:00,204.5881,7.8,12.57,47.84626,-54.09684
2023-06-23 08:39:00+00:00,202.4332,7.91,12.57,47.84626,-54.09684
2023-06-23 08:49:00+00:00,201.6181,7.99,12.57,47.84626,-54.09684
2023-06-23 08:59:00+00:00,201.4531,7.96,12.57,47.84626,-54.09684
2023-06-23 09:09:00+00:00,201.5798,7.99,12.57,47.84626,-54.09684
2023-06-23 09:19:00+00:00,204.0247,7.99,12.57,47.84626,-54.09684
2023-06-23 09:29:00+00:00,207.7097,7.97,12.57,47.84626,-54.09684
2023-06-23 09:39:00+00:00,209.0565,7.9,12.57,47.84626,-54.09684
2023-06-23 09:49:00+00:00,210.0064,7.9,12.57,47.84626,-54.09684
2023-06-23 09:59:00+00:00,216.2097,7.9,12.57,47.84626,-54.09684
2023-06-23 10:09:00+00:00,221.1981,7.9,12.57,47.84626,-54.09684
2023-06-23 10:19:00+00:00,218.5014,7.9,12.73,47.84626,-54.09684
2023-06-23 10:29:00+00:00,218.2464,7.9,12.73,47.84626,-54.09684
2023-06-23 10:39:00+00:00,226.5748,7.9,12.73,47.84626,-54.09684
2023-06-23 10:49:00+00:00,231.1464,7.9,12.73,47.84626,-54.09684
2023-06-23 10:59:00+00:00,227.9964,7.9,12.73,47.84626,-54.09684
2023-06-23 11:09:00+00:00,230.0331,8.0,12.73,47.84626,-54.09684
2023-06-23 11:19:00+00:00,238.0581,7.95,13.05,47.84626,-54.09684
2023-06-23 11:29:00+00:00,240.7197,7.9,13.05,47.84626,-54.09684
2023-06-23 11:39:00+00:00,242.5681,7.86,13.05,47.84626,-54.09684
2023-06-23 11:49:00+00:00,248.2714,7.88,13.05,47.84626,-54.09684
2023-06-23 11:59:00+00:00,254.4948,7.8,13.05,47.84626,-54.09684
2023-06-23 12:09:00+00:00,257.8698,7.8,13.05,47.84626,-54.09684
2023-06-23 12:19:00+00:00,260.9848,7.8,13.6,47.84626,-54.09684
2023-06-23 12:29:00+00:00,262.4764,7.8,13.6,47.84626,-54.09684
2023-06-23 12:39:00+00:00,266.3381,7.84,13.6,47.84626,-54.09684
2023-06-23 12:49:00+00:00,272.1014,7.89,13.6,47.84626,-54.09684
2023-06-23 12:59:00+00:00,279.2463,7.9,13.6,47.84626,-54.09684
2023-06-23 13:09:00+00:00,283.203,7.9,13.6,47.84626,-54.09684
2023-06-23 13:19:00+00:00,289.3531,7.89,13.76,47.84626,-54.09684
2023-06-23 13:29:00+00:00,295.3464,7.8,13.76,47.84626,-54.09684
2023-06-23 13:39:00+00:00,302.978,7.74,13.76,47.84626,-54.09684
2023-06-23 13:49:00+00:00,305.3113,7.77,13.76,47.84626,-54.09684
2023-06-23 13:59:00+00:00,310.658,7.76,13.76,47.84626,-54.09684
2023-06-23 14:09:00+00:00,316.2896,7.72,13.76,47.84626,-54.09684
2023-06-23 14:19:01+00:00,316.7562,7.75,13.76,47.84626,-54.09684
2023-06-23 14:29:01+00:00,310.9647,7.77,13.76,47.84626,-54.09684
2023-06-23 14:39:01+00:00,314.0096,7.73,13.76,47.84626,-54.09684
2023-06-23 14:49:01+00:00,317.2095,7.75,13.76,47.84626,-54.09684
2023-06-23 14:59:01+00:00,313.6063,7.76,13.76,47.84626,-54.09684
2023-06-23 15:09:01+00:00,312.223,7.78,13.76,47.84626,-54.09684
2023-06-23 15:19:00+00:00,315.5096,7.78,13.84,47.84626,-54.09684
2023-06-23 15:29:00+00:00,314.5913,7.78,13.84,47.84626,-54.09684
2023-06-23 15:39:00+00:00,313.8413,7.78,13.84,47.84626,-54.09684
2023-06-23 15:49:00+00:00,313.6364,7.78,13.84,47.84626,-54.09684
2023-06-23 15:59:00+00:00,307.7047,7.78,13.84,47.84626,-54.09684
2023-06-23 16:09:00+00:00,301.2714,7.79,13.84,47.84626,-54.09684
2023-06-23 16:19:00+00:00,303.0513,7.75,13.84,47.84626,-54.09684
2023-06-23 16:29:00+00:00,300.1263,7.76,13.84,47.84626,-54.09684
2023-06-23 16:39:00+00:00,295.408,7.76,13.84,47.84626,-54.09684
2023-06-23 16:49:00+00:00,297.093,7.76,13.84,47.84626,-54.09684
2023-06-23 16:59:00+00:00,299.7214,7.77,13.84,47.84626,-54.09684
2023-06-23 17:09:00+00:00,293.2963,7.77,13.84,47.84626,-54.09684
2023-06-23 17:19:00+00:00,288.6712,7.77,13.84,47.84626,-54.09684
2023-06-23 17:29:00+00:00,288.7047,7.77,13.84,47.84626,-54.09684
2023-06-23 17:39:00+00:00,285.3331,7.79,13.84,47.84626,-54.09684
2023-06-23 17:49:00+00:00,276.5914,7.8,13.84,47.84626,-54.09684
2023-06-23 17:59:00+00:00,267.7097,7.8,13.84,47.84626,-54.09684
2023-06-23 18:09:00+00:00,265.7914,7.8,13.84,47.84626,-54.09684
2023-06-23 18:19:00+00:00,262.7314,7.8,13.76,47.84626,-54.09684
2023-06-23 18:29:00+00:00,257.0664,7.8,13.76,47.84626,-54.09684
2023-06-23 18:39:00+00:00,249.9965,7.89,13.76,47.84626,-54.09684
2023-06-23 18:49:00+00:00,247.4998,7.9,13.76,47.84626,-54.09684
2023-06-23 18:59:00+00:00,239.3648,7.96,13.76,47.84626,-54.09684
2023-06-23 19:09:00+00:00,233.6998,8.0,13.76,47.84626,-54.09684
2023-06-23 19:19:00+00:00,227.9781,8.05,13.68,47.84626,-54.09684
2023-06-23 19:29:00+00:00,224.8981,8.05,13.68,47.84626,-54.09684
2023-06-23 19:39:00+00:00,219.8715,8.0,13.68,47.84626,-54.09684
2023-06-23 19:49:00+00:00,215.1131,8.0,13.68,47.84626,-54.09684
2023-06-23 19:59:00+00:00,212.0064,8.0,13.68,47.84626,-54.09684
2023-06-23 20:09:00+00:00,209.3297,7.99,13.68,47.84626,-54.09684
2023-06-23 20:19:00+00:00,205.2515,7.95,13.6,47.84626,-54.09684
2023-06-23 20:29:00+00:00,204.8965,7.9,13.6,47.84626,-54.09684
2023-06-23 20:39:00+00:00,206.9231,7.9,13.6,47.84626,-54.09684
2023-06-23 20:49:00+00:00,208.4431,7.9,13.6,47.84626,-54.09684
2023-06-23 20:59:00+00:00,209.0015,7.89,13.6,47.84626,-54.09684
2023-06-23 21:09:00+00:00,210.4231,7.87,13.6,47.84626,-54.09684
2023-06-23 21:19:00+00:00,208.7747,7.8,13.44,47.84626,-54.09684
2023-06-23 21:29:00+00:00,208.6998,7.8,13.44,47.84626,-54.09684
2023-06-23 21:39:00+00:00,215.5448,7.8,13.44,47.84626,-54.09684
2023-06-23 21:49:00+00:00,218.3514,7.8,13.44,47.84626,-54.09684
2023-06-23 21:59:00+00:00,218.1131,7.8,13.44,47.84626,-54.09684
2023-06-23 22:09:00+00:00,223.0697,7.8,13.44,47.84626,-54.09684
2023-06-23 22:19:00+00:00,228.0314,7.8,13.29,47.84626,-54.09684
2023-06-23 22:29:00+00:00,233.4515,7.8,13.29,47.84626,-54.09684
2023-06-23 22:39:00+00:00,237.0648,7.8,13.29,47.84626,-54.09684
2023-06-23 22:49:00+00:00,239.0681,7.79,13.29,47.84626,-54.09684
2023-06-23 22:59:00+00:00,241.5265,7.79,13.29,47.84626,-54.09684
2023-06-23 23:09:00+00:00,248.1464,7.8,13.29,47.84626,-54.09684
2023-06-23 23:19:00+00:00,251.1014,7.8,13.05,47.84626,-54.09684
2023-06-23 23:29:00+00:00,252.3431,7.8,13.05,47.84626,-54.09684
2023-06-23 23:39:00+00:00,255.5997,7.8,13.05,47.84626,-54.09684
2023-06-23 23:49:00+00:00,259.5815,7.8,13.05,47.84626,-54.09684
2023-06-23 23:59:00+00:00,258.3597,7.8,13.05,47.84626,-54.09684
